Location: *
(46.1833°N, 22.7667°E)
Time: 13:06:47
(UTC+00:00)

Cosmos 2219 Rocket - Pass Details

Date: 17 September 2019
Orbit: 829 x 845 km, 71.0° (Epoch: 16 October)

Event Time Altitude Azimuth Distance (km) Brightness Sun altitude
Rises 17:08:25 0° 336° (NNW) 3,382 5.8 -6.2°
Reaches altitude 10° 17:10:56 10° 342° (NNW) 2,445 5.0 -6.6°
Maximum altitude 17:16:24 51° 58° (ENE) 1,035 2.4 -7.5°
Drops below altitude 10° 17:21:50 10° 134° (SE) 2,437 4.1 -8.5°
Enters shadow 17:23:10 - 138° (SE) 2,931 4.5 -8.7°
